Skip Page Navigation
NASA JPL Caltech
NASA Logo - Jet Propulsion Laboratory + View the NASA Portal
+ Near-Earth Object (NEO) Program
Search JPL
JPL Home Earth Solar System Stars & Galaxies Technology
JPL Solar System Dynamics
BODIES ORBITS EPHEMERIDES TOOLS PHYSICAL DATA DISCOVERY FAQ SITE MAP
JPL Small-Body Database Browser
Search: [ help ]  
(2010 TS149)
Classification: Apollo [NEO, PHA]          SPK-ID: 3549036
Ephemeris | Orbit Diagram | Orbital Elements | Physical Parameters | Close-Approach Data ]

[ hide orbit diagram ]
Orbit Diagram
Note: Make sure you have Java enabled on your browser to see the applet. This applet is provided as a 3D orbit visualization tool. The applet was implemented using 2-body methods, and hence should not be used for determining accurate long-term trajectories (over several years or decades) or planetary encounter circumstances. For accurate long-term ephemerides, please instead use our Horizons system.
Orbit Viewer

Additional Notes: the orbits shown in the applet are color coded. The planets are white lines, and the asteroid/comet is a blue line. The bright white line indicates the portion of the orbit that is above the ecliptic plane, and the darker portion is below the ecliptic plane. Likewise for the asteroid/comet orbit, the light blue indicates the portion above the ecliptic plane, and the dark blue the portion below the ecliptic plane.

Orbit Viewer applet originally written and kindly provided by Osamu Ajiki (AstroArts), and further modified by Ron Baalke (JPL).


Orbital Elements at Epoch 2456400.5 (2013-Apr-18.0) TDB
Reference: JPL 18 (heliocentric ecliptic J2000)
 Element Value Uncertainty (1-sigma)   Units 
e .3901356692369494 4.6429e-07  
a 1.497974189783459 1.3621e-08 AU
q .913561026752612 6.936e-07 AU
i 3.425070085724969 9.9189e-06 deg
node 128.1507531339633 0.00025832 deg
peri 13.22982026947236 0.000282 deg
M 46.70329974901501 1.4005e-05 deg
tp 2456313.623965741312
(2013-Jan-21.12396574)
2.5887e-05 JED
period 669.6608698143909
1.83
9.134e-06
2.501e-08
d
yr
n .537585539528061 7.3325e-09 deg/d
Q 2.082387352814305 1.8936e-08 AU
  Orbit Determination Parameters
   # obs. used (total)      94  
   data-arc span      4067 days (11.13 yr)  
   first obs. used      2001-11-12  
   last obs. used      2012-12-31  
   planetary ephem.      DE405  
   SB-pert. ephem.      SB405-CPV-2  
   condition code      0  
   fit RMS      .45279  
   data source      ORB  
   producer      Otto Matic  
   solution date      2013-Jan-07 00:55:21  

Additional Information
 Earth MOID = .0269654 AU 
 T_jup = 4.460 
[ show covariance matrix ]

Ephemeris | Orbit Diagram | Orbital Elements | Physical Parameters | Close-Approach Data ]

Physical Parameter Table
Parameter Symbol Value Units Sigma Reference Notes
absolute magnitude H 19.992 mag .331 18 autocmod 2.5b

[ show close-approach data ]
Ephemeris | Orbit Diagram | Orbital Elements | Physical Parameters | Close-Approach Data ]
ABOUT SSD CREDITS/AWARDS PRIVACY/COPYRIGHT GLOSSARY LINKS
FirstGov 2013-Jun-19 02:59 UT
(server date/time)  
NASA Home Page
Site Manager:   Donald K. Yeomans
Webmaster  Alan B. Chamberlin